Date,TemperatureHighF,TemperatureAvgF,TemperatureLowF,DewpointHighF,DewpointAvgF,DewpointLowF,HumidityHigh,HumidityAvg,HumidityLow,PressureMaxIn,PressureMinIn,WindSpeedMaxMPH,WindSpeedAvgMPH,GustSpeedMaxMPH,PrecipitationSumIn
2013-1-1,30,23,11,23,15,5,81,71,61,0.00,40.00,7,4,16,0.00
2013-1-2,22,15,4,14,8,-6,85,73,63,0.00,40.00,8,3,18,0.00
2013-1-3,20,7,-3,15,-2,-11,82,66,55,0.00,40.00,5,1,10,0.00
2013-1-4,35,28,19,21,18,14,79,67,54,0.00,40.00,5,3,15,0.00
2013-1-5,31,28,24,23,19,15,76,67,53,0.00,40.00,6,3,18,0.00
2013-1-6,36,32,24,26,23,17,90,71,62,0.00,40.00,7,2,14,0.00
2013-1-7,33,27,21,28,21,15,88,77,69,0.00,40.00,7,2,13,0.00
2013-1-8,40,32,26,24,22,17,77,65,52,0.00,40.00,13,3,23,0.00
2013-1-9,42,35,26,31,24,18,82,66,51,0.00,40.00,9,4,23,0.00
2013-1-10,39,33,27,26,23,21,76,66,52,0.00,40.00,8,3,21,0.00
2013-1-11,36,29,19,36,23,10,97,79,57,0.00,40.00,8,3,16,0.00
2013-1-12,43,38,36,42,38,35,99,97,94,0.00,40.00,6,3,15,0.00
2013-1-13,45,41,36,45,41,36,100,99,93,0.00,40.00,10,3,20,0.00
2013-1-14,47,40,29,46,36,-100,100,90,68,0.00,40.00,9,3,20,0.00
2013-1-15,31,29,27,23,22,18,79,73,68,0.00,40.00,2,1,8,0.00
2013-1-16,31,28,25,30,26,18,98,91,68,0.00,40.00,3,0,8,0.00
2013-1-17,33,27,18,28,22,8,99,81,63,0.00,40.00,0,0,0,0.00
2013-1-18,20,15,8,8,1,-4,70,54,42,0.00,40.00,13,3,29,0.00
2013-1-19,40,30,19,22,14,4,58,50,44,0.00,40.00,14,7,30,0.00
2013-1-20,41,34,20,32,19,5,89,55,31,0.00,40.00,13,6,28,0.00
2013-1-21,21,17,13,15,9,3,88,71,46,0.00,40.00,6,2,12,0.00
2013-1-22,17,11,3,13,2,-8,91,69,38,0.00,40.00,5,3,14,0.00
2013-1-23,7,1,-4,-5,-8,-12,78,66,51,0.00,40.00,6,2,17,0.00
2013-1-24,11,0,-6,0,-9,-13,76,65,43,0.00,40.00,7,3,17,0.00
2013-1-25,13,7,0,7,-4,-7,87,63,41,0.00,40.00,6,2,16,0.00
2013-1-26,15,8,3,7,1,-1,88,75,53,0.00,40.00,5,2,15,0.00
2013-1-27,6,5,3,3,1,-1,88,84,74,0.00,40.00,2,1,9,0.00
2013-1-28,28,25,21,27,21,0,96,88,40,0.00,40.00,7,3,18,0.00
2013-1-29,38,33,28,36,32,27,98,94,87,0.00,40.00,6,2,20,0.00
2013-1-30,54,45,35,54,45,34,100,99,93,0.00,40.00,14,6,36,0.00
2013-1-31,44,31,23,44,20,10,98,65,50,0.00,40.00,8,5,22,0.00